Date String (YYYY-MM-DD hh:mm:ss) UTC,Instrument flags,Ambient pressure (hPa),Sample flow (lpm),Bypass flow (lpm),Sample temperature (°C),Ambient temperature (°C),ASC tube jacket temperature (°C),LED temperature (°C),Box temperature (°C),Sample RH (%),Span deviation,Mass concentration (μg/m³),Mass concentration (μg/m³),Mass concentration (μg/m³)
DateTimeUTC,F1_M11,P_M11,Q1_M11,Q2_M11,T1_M11,T2_M11,T3_M11,T4_M11,T5_M11,U1_M11,ZSPAN_M11,X0_M11,X2_M11,X1_M11
2022-05-22 10:00:00,,0831.6,5.00,0.00,23.5,22.3,00.0,32.5,25.3,15.9,0000.0,0000.00,0000.00,0000.00
2022-05-22 10:01:00,,0831.6,4.99,0.00,23.5,22.3,00.0,32.5,25.3,16.0,0000.0,0000.00,0000.00,0000.00
2022-05-22 10:02:00,,0831.6,5.01,0.00,23.5,22.3,00.0,32.5,25.3,15.9,0000.0,0000.00,0000.00,0000.00
2022-05-22 10:03:00,,0831.5,4.99,0.00,23.5,22.3,00.0,32.5,25.3,15.9,0000.0,0000.00,0000.00,0000.00
2022-05-22 10:04:00,,0831.6,4.99,0.00,23.5,22.3,00.0,32.5,25.3,16.0,0000.0,0000.00,0000.00,0000.00
2022-05-22 10:05:00,,0831.6,5.01,0.00,23.5,22.3,00.0,32.5,25.3,16.0,0000.0,0000.00,0000.00,0000.00
2022-05-22 10:06:00,,0831.6,5.00,0.00,23.5,22.3,00.0,32.5,25.3,16.1,0000.0,0000.07,0000.01,0000.00
2022-05-22 10:07:00,,0831.6,5.00,0.00,23.5,22.2,00.0,32.4,25.2,16.0,0000.0,0000.10,0000.02,0000.00
2022-05-22 10:08:00,,0831.6,5.01,0.00,23.4,22.2,00.0,32.4,25.2,16.0,0000.0,0000.10,0000.02,0000.00
2022-05-22 10:09:00,,0831.6,4.99,0.00,23.4,22.2,00.0,32.4,25.2,16.0,0000.0,0000.10,0000.02,0000.00
2022-05-22 10:10:00,,0831.6,5.00,0.00,23.4,22.2,00.0,32.4,25.2,16.0,0000.0,0000.68,0000.02,0000.00
2022-05-22 10:11:00,,0831.6,5.00,0.00,23.4,22.2,00.0,32.4,25.2,16.0,0000.0,0000.82,0000.02,0000.00
2022-05-22 10:12:00,,0831.6,5.01,0.00,23.4,22.2,00.0,32.4,25.2,15.9,0000.0,0000.83,0000.03,0000.00
2022-05-22 10:13:00,,0831.5,5.00,0.00,23.4,22.2,00.0,32.4,25.2,16.0,0000.0,0000.86,0000.04,0000.00
2022-05-22 10:14:00,,0831.6,4.99,0.00,23.4,22.2,00.0,32.4,25.2,16.0,0000.0,0000.86,0000.04,0000.00
2022-05-22 10:15:00,,0831.5,5.01,0.00,23.4,22.2,00.0,32.4,25.2,16.1,0000.0,0000.86,0000.04,0000.00
2022-05-22 10:16:00,,0831.5,5.00,0.00,23.4,22.2,00.0,32.4,25.2,16.1,0000.0,0000.86,0000.04,0000.00
2022-05-22 10:17:00,,0831.6,5.00,0.00,23.4,22.2,00.0,32.4,25.2,16.1,0000.0,0000.80,0000.03,0000.00
2022-05-22 10:18:00,,0831.6,4.99,0.00,23.3,22.2,00.0,32.4,25.2,16.2,0000.0,0000.76,0000.02,0000.00
2022-05-22 10:19:00,,0831.6,5.00,0.00,23.3,22.2,00.0,32.3,25.1,16.1,0000.0,0000.76,0000.02,0000.00
2022-05-22 10:20:00,,0831.6,5.01,0.00,23.3,22.1,00.0,32.3,25.1,16.1,0000.0,0000.76,0000.02,0000.00
2022-05-22 10:21:00,,0831.6,4.99,0.00,23.3,22.1,00.0,32.3,25.1,16.1,0000.0,0000.12,0000.02,0000.00
2022-05-22 10:22:00,,0831.6,5.01,0.00,23.3,22.1,00.0,32.3,25.1,16.1,0000.0,0000.04,0000.02,0000.00
2022-05-22 10:23:00,,0831.6,5.00,0.00,23.3,22.1,00.0,32.3,25.1,16.1,0000.0,0000.02,0000.01,0000.00
2022-05-22 10:24:00,,0831.6,4.99,0.00,23.3,22.1,00.0,32.3,25.1,15.9,0000.0,0000.00,0000.00,0000.00
2022-05-22 10:25:00,,0831.6,5.01,0.00,23.3,22.1,00.0,32.3,25.1,15.9,0000.0,0000.00,0000.00,0000.00
2022-05-22 10:26:00,,0831.6,5.00,0.00,23.3,22.1,00.0,32.3,25.1,15.9,0000.0,0000.00,0000.00,0000.00
2022-05-22 10:27:00,,0831.7,4.99,0.00,23.3,22.1,00.0,32.3,25.1,15.8,0000.0,0000.00,0000.00,0000.00
2022-05-22 10:28:00,,0831.7,5.01,0.00,23.3,22.1,00.0,32.3,25.1,15.8,0000.0,0000.00,0000.00,0000.00
2022-05-22 10:29:00,,0831.7,5.00,0.00,23.3,22.1,00.0,32.3,25.1,15.9,0000.0,0000.00,0000.00,0000.00
2022-05-22 10:30:00,,0831.7,5.00,0.00,23.3,22.1,00.0,32.3,25.1,15.9,0000.0,0000.00,0000.00,0000.00
2022-05-22 10:31:00,,0831.8,4.99,0.00,23.3,22.1,00.0,32.3,25.1,15.9,0000.0,0000.00,0000.00,0000.00
2022-05-22 10:32:00,,0831.9,5.01,0.00,23.3,22.1,00.0,32.2,25.1,15.8,0000.0,0000.00,0000.00,0000.00
2022-05-22 10:33:00,,0831.9,4.99,0.00,23.2,22.1,00.0,32.2,25.1,15.7,0000.0,0000.00,0000.00,0000.00
2022-05-22 10:34:00,,0831.8,5.00,0.00,23.2,22.1,00.0,32.2,25.1,15.8,0000.0,0000.00,0000.00,0000.00
2022-05-22 10:35:00,,0831.7,5.01,0.00,23.2,22.0,00.0,32.2,25.0,15.8,0000.0,0000.00,0000.00,0000.00
2022-05-22 10:36:00,,0831.7,5.00,0.00,23.2,22.0,00.0,32.2,25.0,15.8,0000.0,0000.00,0000.00,0000.00
2022-05-22 10:37:00,,0831.6,5.00,0.00,23.2,22.0,00.0,32.2,25.0,15.8,0000.0,0000.00,0000.00,0000.00
2022-05-22 10:38:00,,0831.7,4.99,0.00,23.2,22.0,00.0,32.2,25.0,15.7,0000.0,0000.00,0000.00,0000.00
2022-05-22 10:39:00,,0831.7,5.00,0.00,23.2,22.1,00.0,32.2,25.1,15.8,0000.0,0000.00,0000.00,0000.00
2022-05-22 10:40:00,,0831.6,4.99,0.00,23.2,22.1,00.0,32.2,25.1,16.0,0000.0,0000.00,0000.00,0000.00
2022-05-22 10:41:00,,0831.8,5.01,0.00,23.2,22.1,00.0,32.2,25.1,16.0,0000.0,0000.00,0000.00,0000.00
2022-05-22 10:42:00,,0831.9,4.99,0.00,23.2,22.1,00.0,32.2,25.1,16.1,0000.0,0001.56,0000.01,0000.00
2022-05-22 10:43:00,,0832.0,4.99,0.00,23.2,22.1,00.0,32.2,25.0,16.0,0000.0,0002.19,0000.01,0000.00
2022-05-22 10:44:00,,0832.0,5.01,0.00,23.2,22.1,00.0,32.2,25.0,15.9,0000.0,0002.99,0000.02,0000.01
2022-05-22 10:45:00,,0832.0,5.00,0.00,23.1,22.1,00.0,32.2,25.0,16.2,0000.0,0002.99,0000.02,0000.01
2022-05-22 10:46:00,,0832.0,5.00,0.00,23.1,22.1,00.0,32.2,25.0,16.7,0000.0,0002.99,0000.02,0000.01
2022-05-22 10:47:00,,0832.0,5.01,0.00,23.1,22.1,00.0,32.2,25.0,17.0,0000.0,0002.99,0000.02,0000.01
2022-05-22 10:48:00,,0831.9,5.00,0.00,23.1,22.1,00.0,32.2,25.0,16.5,0000.0,0002.99,0000.02,0000.01
2022-05-22 10:49:00,,0831.9,5.00,0.00,23.1,22.1,00.0,32.1,25.0,16.6,0000.0,0002.99,0000.02,0000.01
2022-05-22 10:50:00,,0831.9,4.99,0.00,23.1,22.1,00.0,32.1,25.0,16.4,0000.0,0002.99,0000.02,0000.01
2022-05-22 10:51:00,,0831.8,5.00,0.00,23.1,22.1,00.0,32.1,25.0,16.1,0000.0,0002.99,0000.02,0000.01
2022-05-22 10:52:00,,0831.8,5.00,0.00,23.1,22.1,00.0,32.1,25.0,16.1,0000.0,0002.99,0000.02,0000.01
2022-05-22 10:53:00,,0831.8,5.00,0.00,23.1,22.1,00.0,32.1,25.0,16.0,0000.0,0001.32,0000.02,0000.00
2022-05-22 10:54:00,,0831.9,5.00,0.00,23.1,22.2,00.0,32.1,25.0,15.8,0000.0,0000.82,0000.02,0000.00
2022-05-22 10:55:00,,0831.9,5.00,0.00,23.1,22.2,00.0,32.1,25.0,15.5,0000.0,0000.09,0000.02,0000.00
2022-05-22 10:56:00,,0831.8,5.01,0.00,23.1,22.2,00.0,32.1,25.0,15.2,0000.0,0000.09,0000.01,0000.00
2022-05-22 10:57:00,,0831.9,4.99,0.00,23.2,22.2,00.0,32.1,25.0,15.3,0000.0,0000.09,0000.01,0000.00
2022-05-22 10:58:00,,0832.0,5.01,0.00,23.2,22.2,00.0,32.1,25.0,15.3,0000.0,0000.09,0000.01,0000.00
2022-05-22 10:59:00,,0832.0,5.00,0.00,23.1,22.2,00.0,32.1,25.0,15.2,0000.0,0000.09,0000.01,0000.00
